• en France
  • Liste des pays
  • À 7 jours
  • Température de l'eau
  • Carte satellitaire
  • Carte météo
  • Widgets météo
  • user-avatar
    Se connecter

    Météo par heure à Bangor

    Ce jour, 18 Janvier, Jeudi

    Heure Température Précipitation Vent Pression Humidité
    00:00 +8°C° 0 mm 13 m/s 728 mmHg 86%
    01:00 +7°C° 0,1 mm 13 m/s 728 mmHg 83%
    02:00 +6°C° 0,1 mm 14 m/s 728 mmHg 80%
    03:00 +5°C° 0,1 mm 14 m/s 728 mmHg 78%
    04:00 +4°C° 0 mm 13 m/s 729 mmHg 77%
    05:00 +3°C° 0 mm 12 m/s 731 mmHg 76%
    06:00 +2°C° 0 mm 8 m/s 732 mmHg 77%
    07:00 +3°C° 0 mm 7 m/s 733 mmHg 79%
    08:00 +3°C° 0 mm 7 m/s 733 mmHg 80%
    09:00 +2°C° 0 mm 7 m/s 734 mmHg 82%
    10:00 +3°C° 0,1 mm 7 m/s 734 mmHg 78%
    11:00 +4°C° 0,1 mm 8 m/s 734 mmHg 75%
    12:00 +3°C° 0,1 mm 9 m/s 734 mmHg 72%
    13:00 +4°C° 0,1 mm 8 m/s 735 mmHg 72%
    14:00 +4°C° 0,1 mm 8 m/s 735 mmHg 71%
    15:00 +4°C° 0,1 mm 8 m/s 735 mmHg 71%
    16:00 +3°C° 0,1 mm 7 m/s 735 mmHg 73%
    17:00 +2°C° 0,1 mm 7 m/s 736 mmHg 76%
    18:00 +1°C° 0,1 mm 6 m/s 736 mmHg 78%
    19:00 +1°C° 0,1 mm 6 m/s 736 mmHg 78%
    20:00 +1°C° 0,1 mm 6 m/s 737 mmHg 78%
    21:00 -1°C° 0,1 mm 6 m/s 737 mmHg 79%
    22:00 -1°C° 0 mm 6 m/s 738 mmHg 79%
    23:00 -1°C° 0 mm 6 m/s 738 mmHg 80%

    Demain, 19 Janvier, Vendredi

    Heure Température Précipitation Vent Pression Humidité
    00:00 -1°C° 0 mm 6 m/s 738 mmHg 80%
    01:00 0°C° 0 mm 5 m/s 738 mmHg 80%
    02:00 -1°C° 0 mm 5 m/s 739 mmHg 80%
    03:00 -1°C° 0 mm 5 m/s 739 mmHg 81%
    04:00 -1°C° 0 mm 5 m/s 739 mmHg 81%
    05:00 -1°C° 0 mm 5 m/s 739 mmHg 81%
    06:00 -1°C° 0 mm 5 m/s 739 mmHg 81%
    07:00 -1°C° 0 mm 5 m/s 739 mmHg 80%
    08:00 -1°C° 0 mm 5 m/s 740 mmHg 80%
    09:00 -1°C° 0 mm 5 m/s 740 mmHg 79%
    10:00 -1°C° 0,1 mm 6 m/s 740 mmHg 74%
    11:00 0°C° 0,1 mm 7 m/s 740 mmHg 69%
    12:00 +1°C° 0,1 mm 8 m/s 740 mmHg 65%
    13:00 +1°C° 0,1 mm 8 m/s 740 mmHg 66%
    14:00 +1°C° 0,1 mm 8 m/s 739 mmHg 67%
    15:00 +1°C° 0,1 mm 8 m/s 739 mmHg 68%
    16:00 0°C° 0,1 mm 7 m/s 739 mmHg 72%
    17:00 +1°C° 0,1 mm 6 m/s 740 mmHg 75%
    18:00 -1°C° 0,1 mm 6 m/s 740 mmHg 78%
    19:00 -1°C° 0 mm 6 m/s 740 mmHg 79%
    20:00 0°C° 0 mm 5 m/s 740 mmHg 80%
    21:00 -1°C° 0 mm 5 m/s 740 mmHg 80%
    22:00 0°C° 0,1 mm 5 m/s 739 mmHg 82%
    23:00 0°C° 0,1 mm 4 m/s 739 mmHg 83%

    Après-demain, 20 Janvier, Samedi

    Heure Température Précipitation Vent Pression Humidité
    00:00 0°C° 0,1 mm 4 m/s 739 mmHg 84%
    01:00 +1°C° 0,3 mm 3 m/s 738 mmHg 86%
    02:00 +1°C° 0,3 mm 3 m/s 738 mmHg 88%
    03:00 +2°C° 0,3 mm 2 m/s 737 mmHg 90%
    04:00 +2°C° 0,1 mm 2 m/s 737 mmHg 90%
    05:00 +3°C° 0,1 mm 1 m/s 736 mmHg 91%
    06:00 +3°C° 0,1 mm 1 m/s 736 mmHg 92%
    07:00 +3°C° 0 mm 1 m/s 736 mmHg 91%
    08:00 +3°C° 0 mm 1 m/s 737 mmHg 91%
    09:00 +3°C° 0 mm 1 m/s 737 mmHg 91%
    10:00 +3°C° 0 mm 2 m/s 738 mmHg 87%
    11:00 +4°C° 0 mm 2 m/s 739 mmHg 83%
    12:00 +4°C° 0 mm 3 m/s 739 mmHg 79%
    13:00 +4°C° 0 mm 3 m/s 740 mmHg 79%
    14:00 +5°C° 0 mm 2 m/s 740 mmHg 79%
    15:00 +5°C° 0 mm 2 m/s 740 mmHg 80%
    16:00 +5°C° 0 mm 1 m/s 741 mmHg 82%
    17:00 +4°C° 0 mm 1 m/s 741 mmHg 84%
    18:00 +3°C° 0 mm 1 m/s 742 mmHg 86%
    19:00 +4°C° 0,1 mm 1 m/s 742 mmHg 87%
    20:00 +3°C° 0,1 mm 2 m/s 742 mmHg 87%
    21:00 +3°C° 0,1 mm 2 m/s 743 mmHg 87%
    22:00 +2°C° 0,9 mm 3 m/s 742 mmHg 89%
    23:00 +1°C° 0,9 mm 4 m/s 742 mmHg 91%

    21 Janvier, Dimanche

    Heure Température Précipitation Vent Pression Humidité
    00:00 +1°C° 0,9 mm 5 m/s 742 mmHg 93%
    01:00 +2°C° 1,4 mm 5 m/s 741 mmHg 94%
    02:00 +3°C° 1,4 mm 5 m/s 741 mmHg 95%
    03:00 +3°C° 1,4 mm 5 m/s 740 mmHg 96%
    04:00 +5°C° 0,5 mm 6 m/s 740 mmHg 95%
    05:00 +6°C° 0,5 mm 7 m/s 739 mmHg 95%
    06:00 +8°C° 0,5 mm 7 m/s 739 mmHg 95%
    07:00 +9°C° 0,4 mm 8 m/s 739 mmHg 94%
    08:00 +8°C° 0,4 mm 9 m/s 739 mmHg 93%
    09:00 +10°C° 0,4 mm 9 m/s 739 mmHg 93%
    10:00 +10°C° 0,1 mm 9 m/s 739 mmHg 92%
    11:00 +10°C° 0,1 mm 9 m/s 739 mmHg 91%
    12:00 +11°C° 0,1 mm 9 m/s 740 mmHg 90%
    13:00 +11°C° 0,3 mm 9 m/s 740 mmHg 90%
    14:00 +10°C° 0,3 mm 9 m/s 740 mmHg 91%
    15:00 +10°C° 0,3 mm 9 m/s 740 mmHg 91%
    16:00 +10°C° 0,2 mm 8 m/s 740 mmHg 92%
    17:00 +10°C° 0,2 mm 8 m/s 740 mmHg 93%
    18:00 +10°C° 0,2 mm 7 m/s 740 mmHg 93%
    19:00 +10°C° 0 mm 6 m/s 741 mmHg 94%
    20:00 +10°C° 0 mm 6 m/s 741 mmHg 94%
    21:00 +10°C° 0 mm 5 m/s 742 mmHg 95%
    22:00 +9°C° 0 mm 5 m/s 742 mmHg 95%
    23:00 +9°C° 0 mm 5 m/s 743 mmHg 95%

    22 Janvier, Lundi

    Heure Température Précipitation Vent Pression Humidité
    00:00 +10°C° 0 mm 4 m/s 743 mmHg 95%
    01:00 +10°C° 0 mm 3 m/s 743 mmHg 95%
    02:00 +9°C° 0 mm 2 m/s 743 mmHg 95%
    03:00 +10°C° 0 mm 1 m/s 744 mmHg 96%
    04:00 +9°C° 0,2 mm 2 m/s 743 mmHg 96%
    05:00 +9°C° 0,2 mm 2 m/s 743 mmHg 96%
    06:00 +8°C° 0,2 mm 2 m/s 743 mmHg 96%
    07:00 +8°C° 0,4 mm 4 m/s 743 mmHg 96%
    08:00 +9°C° 0,4 mm 5 m/s 743 mmHg 95%
    09:00 +10°C° 0,4 mm 7 m/s 742 mmHg 95%
    10:00 +10°C° 0,1 mm 7 m/s 742 mmHg 93%
    11:00 +10°C° 0,1 mm 8 m/s 742 mmHg 92%
    12:00 +10°C° 0,1 mm 8 m/s 741 mmHg 90%
    13:00 +10°C° 0,5 mm 9 m/s 741 mmHg 90%
    14:00 +10°C° 0,5 mm 9 m/s 740 mmHg 90%
    15:00 +9°C° 0,5 mm 10 m/s 740 mmHg 90%
    16:00 +9°C° 0,1 mm 10 m/s 740 mmHg 89%
    17:00 +9°C° 0,1 mm 10 m/s 740 mmHg 88%
    18:00 +9°C° 0,1 mm 10 m/s 740 mmHg 87%
    19:00 +8°C° 0 mm 9 m/s 740 mmHg 88%
    20:00 +7°C° 0 mm 8 m/s 741 mmHg 90%
    21:00 +8°C° 0 mm 7 m/s 741 mmHg 91%
    22:00 +7°C° 0,1 mm 8 m/s 741 mmHg 90%
    23:00 +8°C° 0,1 mm 9 m/s 741 mmHg 89%

    23 Janvier, Mardi

    Heure Température Précipitation Vent Pression Humidité
    00:00 +8°C° 0,1 mm 10 m/s 741 mmHg 89%
    01:00 +8°C° 0,1 mm 10 m/s 742 mmHg 88%
    02:00 +8°C° 0,1 mm 10 m/s 742 mmHg 87%
    03:00 +8°C° 0,1 mm 10 m/s 742 mmHg 86%
    04:00 +7°C° 0 mm 9 m/s 743 mmHg 86%
    05:00 +6°C° 0 mm 7 m/s 744 mmHg 87%
    06:00 +7°C° 0 mm 6 m/s 744 mmHg 87%
    07:00 +5°C° 0 mm 6 m/s 745 mmHg 88%
    08:00 +6°C° 0 mm 5 m/s 746 mmHg 88%
    09:00 +6°C° 0 mm 5 m/s 746 mmHg 89%
    10:00 +7°C° 0 mm 5 m/s 746 mmHg 84%
    11:00 +8°C° 0 mm 5 m/s 747 mmHg 80%
    12:00 +9°C° 0 mm 5 m/s 747 mmHg 75%
    13:00 +9°C° 0 mm 5 m/s 747 mmHg 78%
    14:00 +9°C° 0 mm 5 m/s 746 mmHg 81%
    15:00 +10°C° 0 mm 5 m/s 746 mmHg 84%
    16:00 +10°C° 0 mm 6 m/s 745 mmHg 86%
    17:00 +10°C° 0 mm 7 m/s 745 mmHg 88%
    18:00 +9°C° 0 mm 7 m/s 744 mmHg 90%
    19:00 +9°C° 0,5 mm 8 m/s 744 mmHg 90%
    20:00 +9°C° 0,5 mm 8 m/s 743 mmHg 91%
    21:00 +8°C° 0,5 mm 9 m/s 743 mmHg 92%
    22:00 +10°C° 1 mm 9 m/s 742 mmHg 91%
    23:00 +9°C° 1 mm 10 m/s 742 mmHg 90%
    Voir plus